INTELSAT 23 (IS-23)

Last updated on Sun Apr 12 2026 00:02:52 GMT+0000 (Coordinated Universal Time)

1 38867U 12057A 26101.43886830 -.00000283 00000+0 00000+0 0 9999 2 38867 0.0154 253.5794 0000363 155.2616 255.7889 1.00269217 49282
UTC large
Height (km)
Speed (km/s)
/
Latitude / Longitude
Inclination (degrees)
Orbital Period (minutes)
Azimuth
Elevation
Range (km)
Doppler Factor

Next 0 passes for location: London (51.5072 / 0.1276)

Sorry there are no passes over London.
INTELSAT 23 (IS-23)